Regional Weather Roundup
Issued by NWS

Home | Current Version | Previous Version | Text Only | Print | Product List | Glossary Off
Versions: 1 2 3 4 5 6 7 8 9 10 11 12 13 14 15 16 17 18 19 20 21 22 23 24 25 26 27 28 29 30 31 32 33 34 35 36 37 38 39 40 41 42 43 44 45 46 47 48 49 50

000
ASUS43 KDMX 010007
RWRIA

WEATHER ROUNDUP FOR IOWA
NATIONAL WEATHER SERVICE DES MOINES IA
700 PM CDT THU JUL 31 2014

NOTE: "FAIR" INDICATES FEW OR NO CLOUDS BELOW 12,000 FEET WITH NO
SIGNIFICANT WEATHER AND/OR OBSTRUCTIONS TO VISIBILITY.

* - THESE STATIONS ARE NOT NWS STATIONS...THUS NOT UNDER NWS
QUALITY CONTROL.  THEY ALSO DO NOT REPORT WEATHER SUCH
AS PRECIPITATION OR FOG.

IAZ001>003-012>014-020>022-031>034-043>046-010100-
   NORTHWEST IOWA

CITY           SKY/WX    TMP DP  RH WIND       PRES   REMARKS
CARROLL *      SUNNY     68  61  77 SW6       30.05F
CHEROKEE *     CLOUDY    73  59  61 SW6       30.05S
DENISON *      PTSUNNY   68  66  94 NE5       30.04F
LE MARS *      SUNNY     75  61  60 S3        30.05S
ORANGE CITY *  SUNNY     75  57  53 S5        30.05F
SHELDON *      SUNNY     73  63  68 SW6       30.04S
SIOUX CITY     PTSUNNY   73  62  68 E7        30.04S
6HR MIN TEMP:  71; 6HR MAX TEMP:  77; 6HR PCP: TRACE;

SPENCER        MOSUNNY   77  61  57 SW9       30.04S
6HR MIN TEMP:  76; 6HR MAX TEMP:  81; 6HR PCP:  0.01;

STORM LAKE *   SUNNY     72  61  68 W7        30.06F
$$

IAZ055>058-069>071-079>083-090>094-010100-
   SOUTHWEST IOWA

CITY           SKY/WX    TMP DP  RH WIND       PRES   REMARKS
ATLANTIC *     PTSUNNY   73  63  68 E6        30.05F
AUDUBON *      MOSUNNY   70  64  83 CALM      30.08S
CLARINDA *     MOSUNNY   79  61  53 S5        30.05F HX  80
COUNCIL BLFS * SUNNY     77  63  61 SE7       30.02F
CRESTON *      MOSUNNY   79  55  44 CALM      30.06S
HARLAN  *      PTSUNNY   72  64  78 E5        30.08F
LAMONI         SUNNY     79  55  43 CALM      30.06R
6HR MIN TEMP:  78; 6HR MAX TEMP:  82;

RED OAK *      MOSUNNY   79  59  50 SE5       30.04S HX  80
SHENANDOAH *   SUNNY     81  61  50 SE6       30.03F HX  81
$$

IAZ047>049-059>061-072>074-084-010100-
   CENTRAL IOWA

CITY           SKY/WX    TMP DP  RH WIND       PRES   REMARKS
AMES           PTSUNNY   75  62  64 W10       30.04F
6HR MIN TEMP:  75; 6HR MAX TEMP:  81;

ANKENY *       MOSUNNY   73  61  64 W14       30.04S
CHARITON *     SUNNY     77  57  50 CALM      30.05S
DES MOINES     CLOUDY    71  64  78 NW8       30.04S
6HR MIN TEMP:  71; 6HR MAX TEMP:  84; 6HR PCP:  0.02;

GRINNELL*      SUNNY     75  61  60 CALM      30.04F
KNOXVILLE *    SUNNY     77  61  57 CALM      30.03S
MARSHALLTOWN   MOSUNNY   77  62  59 SW5       30.03F
6HR MIN TEMP:  76; 6HR MAX TEMP:  80;

PELLA *        PTSUNNY   77  60  56 SW3       30.05S
PERRY *          N/A     72  63  73 W3        30.05F
$$

IAZ004>006-015-016-023>025-035-036-010100-
   NORTH CENTRAL IOWA

CITY           SKY/WX    TMP DP  RH WIND       PRES   REMARKS
ALGONA *       PTSUNNY   77  61  57 S6        30.03F
CLARION *      SUNNY     77  59  53 W5        30.04S
ESTHERVILLE    TSTM      70  61  73 VRB5G18   30.04S
6HR MIN TEMP:  68; 6HR MAX TEMP:  80; 6HR PCP:  0.07;

FORT DODGE *   SUNNY     75  61  60 W8        30.05S
MASON CITY     SUNNY     78  56  46 NW7       30.04F
6HR MIN TEMP:  76; 6HR MAX TEMP:  82;

FOREST CITY *  MOSUNNY   77  55  47 W3        30.03F
IOWA FALLS *     N/A     77  59  53 W3        30.04F
$$

IAZ007>011-017>019-026>030-037>042-050>054-066-010100-
   NORTHEAST IOWA

CITY           SKY/WX    TMP DP  RH WIND       PRES   REMARKS
CEDAR RAPIDS   MOSUNNY   76  61  59 W5        30.03S
6HR MIN TEMP:  76; 6HR MAX TEMP:  81;

CHARLES CITY * PTSUNNY   77  61  57 VRB5      30.04S
CLINTON *      SUNNY     75  63  64 W5        30.06S
DECORAH *      SUNNY     75  55  50 CALM      30.02S
DUBUQUE        SUNNY     75  60  59 W6        30.04S
6HR MIN TEMP:  75; 6HR MAX TEMP:  79;

MONTICELLO *   MOSUNNY   77  63  61 W5        30.03S
OELWEIN *      SUNNY     77  61  57 W3        30.04S
WATERLOO       SUNNY     79  56  45 W7        30.02S HX  80
6HR MIN TEMP:  79; 6HR MAX TEMP:  82;

$$

IAZ064-065-067-068-078-010100-
   EAST CENTRAL IOWA

CITY           SKY/WX    TMP DP  RH WIND       PRES   REMARKS
DAVENPORT      SUNNY     77  63  61 W5        30.04F
6HR MIN TEMP:  77; 6HR MAX TEMP:  81;

IOWA CITY      SUNNY     78  61  55 W6        30.04F HX  80
6HR MIN TEMP:  78; 6HR MAX TEMP:  82;

MT. PLEASANT * SUNNY     78  61  55 CALM      30.04F HX  80
MUSCATINE *    SUNNY     81  61  50 W7        30.03F HX  81
QUAD CITIES    MOSUNNY   79  61  53 SW6       30.02F HX  80
6HR MIN TEMP:  79; 6HR MAX TEMP:  84;

$$

IAZ062-063-075>077-085>089-095>099-010100-
   SOUTHEAST IOWA

CITY           SKY/WX    TMP DP  RH WIND       PRES   REMARKS
BURLINGTON     SUNNY     78  62  57 CALM      30.04F HX  80
6HR MIN TEMP:  78; 6HR MAX TEMP:  81;

FAIRFIELD *    MOSUNNY   77  61  57 CALM      30.04F
FORT MADISON * SUNNY     79  63  57 CALM      30.05F HX  80
KEOKUK *       SUNNY     79  61  53 SW3       30.04F HX  80
OSKALOOSA *      N/A     76  62  61 CALM      30.05S
CENTERVILLE *  SUNNY     81  59  47 CALM      30.07S HX  81
OTTUMWA        MOSUNNY   76  64  66 CALM      30.04F
6HR MIN TEMP:  76; 6HR MAX TEMP:  81;

WASHINGTON *   SUNNY     77  63  61 W3        30.04F
$$

ABBREVIATIONS USED IN REMARKS
   TC - TEMPERATURES IN CELSIUS
  WCI - WIND CHILL INDEX
   HX - HEAT INDEX
  VSB - VISIBILITY
$$



USA.gov is the U.S. government's official web portal to all federal, state and local government web resources and services.